N2ADK Weather Reports


time (UTC)temp
F
wind
direction
speed
knots
gust
knots
rain 1hr
in
rain 24hr
in
rain mn
in
humidity
%
barometer
mb
20260505035517 55 0 0.0 0.0 0.00 0.00 0.00 73 1004.8
20260505035018 55 0 0.0 0.0 0.00 0.00 0.00 74 1004.9
20260505034538 55 0 0.0 0.0 0.00 0.00 0.00 75 1004.9
20260505034018 55 0 0.0 0.0 0.00 0.00 0.00 74 1004.9
20260505033519 55 0 0.0 0.0 0.00 0.00 0.00 75 1004.7
20260505033038 55 0 0.0 0.0 0.00 0.00 0.00 74 1004.6
20260505032519 55 0 0.0 0.0 0.00 0.00 0.00 76 1004.8
20260505032017 55 0 0.0 0.0 0.00 0.00 0.00 76 1004.8
20260505031543 55 0 0.0 0.0 0.00 0.00 0.00 77 1004.8
20260505031019 54 0 0.0 0.0 0.00 0.00 0.00 77 1004.8
20260505030519 53 0 0.0 0.0 0.00 0.00 0.00 81 1004.8
20260505030032 53 0 0.0 0.0 0.00 0.00 0.00 82 1004.9
20260505025518 53 0 0.0 0.0 0.00 0.01 0.00 83 1004.9
20260505025018 53 0 0.0 0.0 0.00 0.01 0.00 83 1004.9
20260505024545 53 0 0.0 0.0 0.00 0.01 0.00 84 1004.9
20260505024017 52 0 0.0 0.0 0.00 0.01 0.00 84 1004.9
20260505023518 52 0 0.0 0.0 0.00 0.01 0.00 85 1005.0
20260505023041 52 0 0.0 0.0 0.00 0.01 0.00 86 1005.0
20260505022518 51 0 0.0 0.0 0.00 0.01 0.00 88 1005.0
20260505022018 51 0 0.0 0.0 0.00 0.01 0.00 88 1005.1
20260505021533 51 0 0.0 0.0 0.00 0.01 0.00 88 1005.2
20260505021016 51 0 0.0 0.0 0.00 0.01 0.00 87 1005.0
20260505020518 51 0 0.0 0.0 0.00 0.01 0.00 87 1005.1
20260505020032 51 0 0.0 0.0 0.00 0.01 0.00 87 1005.1
20260505015518 51 0 0.0 0.0 0.00 0.01 0.00 87 1005.1
20260505015018 51 0 0.0 0.0 0.00 0.01 0.00 87 1005.2
20260505014559 51 0 0.0 0.0 0.00 0.01 0.00 85 1005.2
20260505014018 51 0 0.0 0.0 0.00 0.01 0.00 85 1005.1
20260505013517 51 0 0.0 0.0 0.00 0.01 0.00 85 1005.1
20260505013029 51 0 0.0 0.0 0.00 0.01 0.00 85 1005.1
20260505012517 51 0 0.0 0.0 0.00 0.01 0.00 84 1005.2
20260505012017 52 0 0.0 0.0 0.00 0.01 0.00 85 1005.2
20260505011536 52 0 0.0 0.0 0.00 0.01 0.00 85 1005.3
20260505011017 52 0 0.0 0.0 0.00 0.01 0.00 84 1005.1
20260505010518 52 0 0.0 0.0 0.00 0.01 0.00 82 1005.1
20260505010033 53 0 0.0 0.0 0.00 0.01 0.00 82 1005.1
20260505005518 53 0 0.0 0.0 0.00 0.01 0.00 82 1005.0
20260505005017 54 0 0.0 0.0 0.00 0.01 0.00 81 1005.0
20260505004530 54 0 0.0 0.0 0.00 0.01 0.00 82 1004.9
20260505004017 54 0 0.0 0.0 0.00 0.01 0.00 81 1004.8
20260505003517 55 0 0.0 0.0 0.00 0.01 0.00 78 1004.8
20260505003032 56 0 0.0 0.0 0.00 0.01 0.00 77 1004.8
20260505002517 56 0 0.0 0.0 0.00 0.01 0.00 76 1004.7
20260505002017 57 0 0.0 0.0 0.00 0.01 0.00 76 1004.7
20260505001534 58 0 0.0 0.0 0.00 0.01 0.00 76 1004.7
20260505001017 59 0 0.0 0.0 0.00 0.01 0.00 72 1004.6
20260505000517 59 0 0.0 0.0 0.00 0.01 0.00 68 1004.6
20260505000035 60 0 0.0 0.0 0.00 0.01 0.00 68 1004.5
20260504235517 62 0 0.0 0.0 0.00 0.01 0.00 64 1004.5
20260504235017 63 0 0.0 0.0 0.00 0.01 0.00 63 1004.4
20260504234533 65 0 0.0 0.0 0.00 0.01 0.00 59 1004.4
20260504234018 66 0 0.0 0.0 0.00 0.01 0.00 57 1004.2
20260504233518 67 0 0.0 0.0 0.00 0.01 0.00 54 1004.3
20260504233032 68 0 0.0 0.0 0.00 0.01 0.00 52 1004.3
20260504232518 68 0 0.0 0.0 0.00 0.01 0.00 54 1004.2
20260504232017 69 0 0.0 0.0 0.00 0.01 0.00 46 1004.4
20260504231532 69 0 0.0 0.0 0.00 0.01 0.00 46 1004.3
20260504231017 70 0 0.0 0.0 0.00 0.01 0.00 44 1004.4
20260504230517 70 0 0.0 0.0 0.00 0.01 0.00 45 1004.4
20260504230030 71 0 0.0 0.0 0.00 0.01 0.00 43 1004.4
20260504225518 71 0 0.0 0.0 0.00 0.01 0.00 40 1004.3
20260504225017 72 0 0.0 0.0 0.00 0.01 0.00 40 1004.4
20260504224536 72 0 0.0 0.0 0.00 0.01 0.00 38 1004.4
20260504224017 72 0 0.0 0.0 0.00 0.01 0.00 38 1004.4
20260504223518 72 0 0.0 0.0 0.00 0.01 0.00 38 1004.4
20260504223034 72 0 0.0 0.0 0.00 0.01 0.00 40 1004.5
20260504222517 73 0 0.0 0.0 0.00 0.01 0.00 42 1004.3
20260504222019 72 0 0.0 0.0 0.00 0.01 0.00 40 1004.3
20260504221532 73 0 0.0 0.0 0.00 0.01 0.00 38 1004.2
20260504221019 73 0 0.0 0.0 0.00 0.01 0.00 39 1004.4
20260504220521 72 0 0.0 0.0 0.00 0.01 0.00 41 1004.3
20260504220033 71 0 0.0 0.0 0.00 0.01 0.00 41 1004.3
20260504215518 70 0 0.0 0.0 0.00 0.01 0.00 44 1004.5
20260504215017 71 0 0.0 0.0 0.00 0.01 0.00 44 1004.5
20260504214532 71 0 0.0 0.0 0.00 0.01 0.00 45 1004.5
20260504214017 70 0 0.0 0.0 0.00 0.01 0.00 43 1004.5
20260504213517 70 0 0.0 0.0 0.00 0.01 0.00 45 1004.5
20260504213035 69 0 0.0 0.0 0.00 0.01 0.00 45 1004.4
20260504212517 70 0 0.0 0.0 0.00 0.01 0.00 51 1004.4
20260504212022 70 0 0.0 0.0 0.00 0.01 0.00 46 1004.4
20260504211535 70 0 0.0 0.0 0.00 0.01 0.00 46 1004.4
20260504211017 70 0 0.0 0.0 0.00 0.01 0.00 42 1004.4
20260504210517 70 0 0.0 0.0 0.00 0.01 0.00 44 1004.5
20260504210044 71 0 0.0 0.0 0.00 0.01 0.00 45 1004.5
20260504205518 71 0 0.0 0.0 0.00 0.01 0.00 46 1004.6
20260504205020 71 0 0.0 0.0 0.00 0.01 0.00 43 1004.6
20260504204546 70 0 0.0 0.0 0.00 0.01 0.00 44 1004.7
20260504204017 70 0 0.0 0.0 0.00 0.01 0.00 45 1004.8
20260504203517 70 0 0.0 0.0 0.00 0.01 0.00 47 1004.9
20260504203031 70 0 0.0 0.0 0.00 0.01 0.00 42 1004.9
20260504202518 71 0 0.0 0.0 0.00 0.01 0.00 45 1004.9
20260504202017 71 0 0.0 0.0 0.00 0.01 0.00 41 1004.9
20260504201539 72 0 0.0 0.0 0.00 0.01 0.00 42 1005.0
20260504201017 72 0 0.0 0.0 0.00 0.01 0.00 46 1005.1
20260504200517 72 0 0.0 0.0 0.00 0.01 0.00 43 1005.2
20260504200029 72 0 0.0 0.0 0.00 0.01 0.00 47 1005.1
20260504195517 71 0 0.0 0.0 0.00 0.01 0.00 49 1005.2
20260504195017 71 0 0.0 0.0 0.00 0.01 0.00 48 1005.3
20260504194532 72 0 0.0 0.0 0.00 0.01 0.00 44 1005.3
20260504194014 72 0 0.0 0.0 0.00 0.01 0.00 43 1005.3
20260504193519 72 0 0.0 0.0 0.00 0.01 0.00 47 1005.3
20260504193032 72 0 0.0 0.0 0.00 0.01 0.00 49 1005.5
20260504192517 72 0 0.0 0.0 0.00 0.01 0.00 45 1005.6
20260504192017 72 0 0.0 0.0 0.00 0.01 0.00 47 1005.6
20260504191531 71 0 0.0 0.0 0.00 0.01 0.00 44 1005.6
20260504191019 70 0 0.0 0.0 0.00 0.01 0.00 48 1005.9
20260504190517 70 0 0.0 0.0 0.00 0.01 0.00 44 1005.9
20260504190031 71 0 0.0 0.0 0.00 0.01 0.00 43 1005.9
20260504185517 73 0 0.0 0.0 0.00 0.01 0.00 48 1006.0
20260504185018 72 0 0.0 0.0 0.00 0.01 0.00 45 1005.9
20260504184556 72 0 0.0 0.0 0.00 0.01 0.00 48 1006.0
20260504184019 72 0 0.0 0.0 0.00 0.01 0.00 48 1005.9
20260504183517 71 0 0.0 0.0 0.00 0.01 0.00 47 1005.9
20260504183033 70 0 0.0 0.0 0.00 0.01 0.00 47 1006.0
20260504182518 69 0 0.0 0.0 0.00 0.01 0.00 47 1006.1
20260504182015 70 0 0.0 0.0 0.00 0.01 0.00 49 1006.1
20260504181530 69 0 0.0 0.0 0.00 0.01 0.00 46 1006.1
20260504181020 68 0 0.0 0.0 0.00 0.01 0.00 48 1006.1
20260504180518 69 0 0.0 0.0 0.00 0.01 0.00 46 1006.1
20260504180032 70 0 0.0 0.0 0.00 0.01 0.00 51 1006.1
20260504175517 70 0 0.0 0.0 0.00 0.01 0.00 49 1006.1
20260504175017 70 0 0.0 0.0 0.00 0.01 0.00 46 1006.1
20260504174530 69 0 0.0 0.0 0.00 0.01 0.00 50 1006.1
20260504174017 67 0 0.0 0.0 0.00 0.01 0.00 52 1006.1
20260504173516 68 0 0.0 0.0 0.00 0.01 0.00 47 1006.2
20260504173036 68 0 0.0 0.0 0.00 0.01 0.00 49 1006.2
20260504172517 68 0 0.0 0.0 0.00 0.01 0.00 51 1006.1
20260504172018 69 0 0.0 0.0 0.00 0.01 0.00 52 1006.3
20260504171535 68 0 0.0 0.0 0.00 0.01 0.00 49 1006.2
20260504171024 68 0 0.0 0.0 0.00 0.01 0.00 49 1006.2
20260504170517 69 0 0.0 0.0 0.00 0.01 0.00 51 1006.4
20260504151017 63 0 0.0 0.0 0.00 0.01 0.00 53 1007.5
20260504150515 62 0 0.0 0.0 0.00 0.01 0.00 52 1007.6
20260504141017 60 0 0.0 0.0 0.00 0.01 0.00 55 1007.8
20260504140517 60 0 0.0 0.0 0.00 0.01 0.00 58 1007.8
20260504130521 54 0 0.0 0.0 0.00 0.01 0.00 62 1008.4
20260504110518 47 0 0.0 0.0 0.00 0.01 0.00 71 1008.9
20260504100517 45 0 0.0 0.0 0.00 0.01 0.00 80 1008.8
20260504081535 41 0 0.0 0.0 0.00 0.01 0.00 91 1008.9
20260504081017 41 0 0.0 0.0 0.00 0.01 0.00 91 1008.9
20260504080518 41 0 0.0 0.0 0.00 0.01 0.00 91 1008.9
20260504050521 46 0 0.0 0.0 0.00 0.01 0.00 92 1009.2
20260504045517 46 0 0.0 0.0 0.00 0.01 0.00 92 1009.3
20260504045017 46 0 0.0 0.0 0.00 0.01 0.00 92 1009.4
20260504044535 46 0 0.0 0.0 0.00 0.01 0.00 92 1009.4
20260504044017 46 0 0.0 0.0 0.00 0.01 0.00 92 1009.4
20260504043517 46 0 0.0 0.0 0.00 0.01 0.00 92 1009.4
20260504043035 46 0 0.0 0.0 0.00 0.01 0.00 92 1009.3
20260504042516 46 0 0.0 0.0 0.00 0.01 0.00 92 1009.4
20260504042016 46 0 0.0 0.0 0.00 0.01 0.00 92 1009.3
20260504041542 46 0 0.0 0.0 0.00 0.01 0.00 92 1009.6
20260504041019 46 0 0.0 0.0 0.00 0.01 0.00 92 1009.7
20260504040517 46 0 0.0 0.0 0.00 0.01 0.00 92 1009.7
20260504040040 46 0 0.0 0.0 0.00 0.01 0.00 91 1009.8